Date,TemperatureHighF,TemperatureAvgF,TemperatureLowF,DewpointHighF,DewpointAvgF,DewpointLowF,HumidityHigh,HumidityAvg,HumidityLow,PressureMaxIn,PressureMinIn,WindSpeedMaxMPH,WindSpeedAvgMPH,GustSpeedMaxMPH,PrecipitationSumIn
2013-1-1,30.8,22.9,5.6,23.4,11.1,-0.6,87,63,36,29.86,29.60,5,1,0,0.00
2013-1-2,22.1,10.0,-0.8,8.9,-1.4,-9.5,86,61,41,30.04,29.84,4,1,0,0.00
2013-1-3,22.7,8.1,-3.2,4.9,-2.6,-9.1,85,63,38,30.09,29.94,4,0,0,0.00
2013-1-4,33.5,20.3,-0.3,23.2,13.9,-3.2,96,77,62,29.94,29.72,3,1,0,0.00
2013-1-5,35.6,27.9,13.7,24.3,15.6,9.3,83,62,37,30.25,29.73,5,1,0,0.00
2013-1-6,36.4,25.1,12.5,24.6,18.6,8.0,86,76,61,30.22,29.89,3,0,0,0.00
2013-1-7,29.3,21.6,9.8,23.8,16.0,7.9,94,80,58,30.39,29.92,6,1,0,0.00
2013-1-8,42.9,27.6,10.0,23.7,20.3,7.7,97,76,43,30.34,30.17,4,1,0,0.01
2013-1-9,36.9,27.7,14.8,30.4,23.3,13.4,95,84,66,30.40,29.88,3,0,0,0.01
2013-1-10,43.1,37.4,27.3,31.1,25.0,20.3,80,61,46,30.51,29.90,8,3,0,0.00
2013-1-11,36.1,29.5,21.5,30.5,22.2,17.3,95,75,49,30.52,30.23,2,0,0,0.01
2013-1-12,42.2,36.4,31.8,39.7,35.4,30.5,98,96,90,30.24,30.09,1,0,0,0.06
2013-1-13,42.7,38.3,34.9,42.4,37.8,34.3,99,98,97,30.14,29.93,2,0,0,0.01
2013-1-14,58.7,44.7,33.0,50.1,38.5,24.5,99,81,48,30.20,29.83,3,1,0,0.02
2013-1-15,38.1,31.2,25.5,27.9,23.9,20.4,94,75,54,30.30,30.20,2,0,0,0.00
2013-1-16,29.5,28.3,25.7,28.1,25.2,20.1,96,89,70,30.26,29.76,4,1,0,0.00
2013-1-17,39.8,26.7,15.4,33.1,17.7,-1.8,98,72,31,30.11,29.75,4,1,0,0.16
2013-1-18,18.5,11.5,3.7,1.1,-6.0,-14.6,80,47,28,30.40,30.08,4,1,0,0.00
2013-1-19,38.6,27.7,7.6,26.9,17.3,0.5,82,65,49,30.35,29.84,3,0,0,0.00
2013-1-20,47.7,36.1,25.8,31.4,23.1,6.6,95,61,34,29.84,29.42,7,2,0,0.14
2013-1-21,26.3,20.4,9.8,11.8,4.2,-2.4,78,51,29,30.03,29.82,5,1,0,0.00
2013-1-22,19.8,13.8,6.3,11.7,2.3,-10.1,77,60,44,30.03,29.75,5,2,0,0.00
2013-1-23,6.4,1.2,-7.9,-10.1,-15.4,-19.0,69,46,32,30.09,30.01,4,1,0,0.00
2013-1-24,14.1,3.2,-9.0,-6.8,-12.5,-17.3,73,49,29,30.14,29.95,3,1,0,0.00
2013-1-25,20.9,9.7,-2.0,2.0,-3.2,-10.2,78,56,39,30.21,30.06,3,0,0,0.00
2013-1-26,20.6,14.3,6.9,-0.5,-4.1,-9.1,61,45,29,30.14,29.98,5,2,0,0.00
2013-1-27,25.1,15.2,4.8,0.3,-3.3,-8.7,65,44,27,30.42,30.13,5,2,0,0.00
2013-1-28,27.5,18.2,4.7,20.0,5.9,-8.0,92,63,26,30.42,30.06,2,0,0,0.00
2013-1-29,33.7,26.0,17.9,29.3,22.6,15.7,95,87,74,30.20,30.06,2,0,0,0.02
2013-1-30,48.5,39.9,30.6,48.2,39.4,29.3,99,98,95,30.14,29.42,3,0,0,0.42
2013-1-31,53.1,43.9,28.3,52.6,35.5,11.3,99,75,43,29.44,28.83,8,5,0,0.13
2013-2-1,28.2,25.5,23.4,15.7,10.8,7.7,59,53,48,29.64,29.44,5,3,0,0.00
2013-2-8,13.8,12.3,10.5,11.4,9.8,7.4,90,90,87,30.37,29.88,10,6,24,0.00
2013-2-9,20.0,14.2,9.4,11.6,8.3,4.9,90,78,61,30.10,29.67,13,8,27,0.00
2013-2-10,36.7,21.3,8.1,9.0,1.8,-3.0,75,46,19,30.35,30.10,4,1,10,0.00
2013-2-11,32.6,21.4,7.0,31.5,18.2,2.6,97,87,66,30.33,29.57,2,0,5,0.12
2013-2-12,45.4,35.2,28.2,35.7,29.0,25.6,97,80,52,29.76,29.52,4,1,14,0.24
2013-2-13,45.2,34.2,26.3,27.2,24.1,21.3,91,68,42,29.81,29.72,3,0,7,0.00
2013-2-14,41.4,33.0,24.6,23.4,20.8,17.4,86,62,40,29.98,29.70,5,1,15,0.00
2013-2-15,45.6,31.7,19.7,34.4,26.3,17.3,97,81,56,29.98,29.88,3,0,7,0.00
2013-2-16,35.7,32.2,27.3,32.6,26.9,10.5,96,82,47,29.93,29.75,6,2,12,0.01
2013-2-17,27.2,20.9,17.9,16.2,9.3,1.8,86,62,46,29.76,29.20,8,5,23,0.00
2013-2-18,32.0,21.9,14.5,7.6,1.3,-3.3,54,41,26,30.05,29.47,7,3,19,0.00
2013-2-19,42.4,30.1,10.8,41.6,15.9,-5.3,97,59,23,30.09,29.53,3,1,8,0.43
2013-2-20,42.4,33.5,26.4,41.6,26.0,16.1,97,75,54,29.64,29.42,4,2,11,0.04
2013-2-21,27.4,25.2,20.1,19.4,13.7,7.2,73,61,47,30.14,29.64,5,2,14,0.00
2013-2-22,39.9,29.8,21.9,22.8,19.8,17.4,88,68,43,30.38,30.14,6,1,12,0.00
2013-2-23,35.6,30.9,26.5,33.2,27.1,20.8,97,86,74,30.34,29.99,2,0,5,0.06
2013-2-24,31.4,29.7,27.7,30.6,28.8,26.7,97,96,96,30.00,29.77,3,1,6,0.00
2013-2-25,44.5,31.4,24.8,32.3,28.1,23.6,97,88,58,30.23,29.89,2,0,4,0.29
2013-2-26,45.1,34.0,27.9,30.2,29.0,26.4,97,83,52,30.35,30.22,2,0,6,0.12
2013-2-27,36.2,32.0,28.7,33.9,30.4,27.2,98,94,87,30.23,29.65,6,2,16,0.10
2013-2-28,37.3,34.0,30.9,36.5,33.2,29.6,98,97,95,29.65,29.52,5,2,11,0.48
2013-3-1,35.5,32.6,30.7,31.5,29.7,28.3,97,89,75,29.66,29.52,6,2,11,0.01
2013-3-2,42.9,34.3,30.4,31.2,29.6,27.2,96,84,56,29.64,29.58,5,1,12,0.06
2013-3-3,43.5,35.6,30.3,33.6,29.4,26.0,95,79,62,29.60,29.51,3,1,9,0.08
2013-3-4,38.4,32.4,30.7,28.2,24.9,22.1,85,74,59,29.68,29.49,5,2,12,0.00
2013-3-5,43.4,37.0,30.7,34.0,29.9,22.9,87,76,63,30.10,29.68,7,3,13,0.00
2013-3-6,37.8,34.4,30.7,32.3,29.0,25.7,94,81,65,30.24,30.10,8,5,16,0.00
2013-3-7,35.6,32.7,30.6,27.2,24.5,23.5,87,72,64,30.20,30.07,11,6,19,0.00
2013-3-8,46.4,36.2,28.2,26.5,22.3,18.2,91,60,33,30.19,30.01,10,7,21,0.00
2013-3-9,50.4,35.8,24.2,29.7,22.8,18.0,95,63,28,30.37,30.17,8,3,16,0.00
2013-3-10,41.1,31.6,21.3,30.1,26.2,19.8,96,81,59,30.42,30.29,3,1,8,0.00
2013-3-11,46.7,37.9,30.7,37.7,33.5,28.9,96,85,64,30.31,30.14,3,1,7,0.00
2013-3-12,47.2,43.1,38.5,46.7,41.9,37.2,98,96,90,30.15,29.72,4,1,13,0.80
2013-3-13,48.9,42.1,30.5,46.5,36.6,26.9,99,82,60,29.73,29.65,4,1,13,0.00
2013-3-14,40.2,31.0,20.2,27.5,20.7,4.7,94,67,43,29.75,29.60,5,2,13,0.00
2013-3-15,37.7,25.7,15.7,22.9,9.9,3.1,84,52,29,29.79,29.58,6,2,13,0.00
2013-3-16,36.9,29.4,22.1,24.1,13.3,8.7,87,53,33,29.88,29.61,5,1,10,0.00
2013-3-17,32.9,23.3,13.0,13.9,6.2,-1.3,91,51,27,30.31,29.88,6,2,14,0.00
2013-3-18,37.2,24.2,8.8,21.4,6.5,-1.7,78,50,22,30.44,30.26,4,1,8,0.00
2013-3-19,30.8,27.4,22.1,29.5,25.2,20.6,96,91,75,30.26,29.66,7,3,14,0.00
2013-3-20,36.7,27.2,16.1,27.7,21.3,14.5,95,80,51,29.71,29.60,5,2,12,0.10
2013-3-21,41.5,29.1,15.6,21.8,18.0,12.5,92,66,34,29.76,29.59,4,1,9,0.05
2013-3-22,41.3,30.3,18.9,21.4,17.0,13.7,93,59,35,29.65,29.58,5,1,9,0.00
2013-3-23,42.5,31.9,22.5,22.8,19.4,14.7,78,61,39,29.66,29.49,6,2,15,0.00
2013-3-24,46.5,37.4,28.8,25.0,23.3,21.5,75,58,39,29.77,29.65,6,2,13,0.00
2013-3-25,43.1,35.2,28.4,33.0,27.1,23.6,85,73,57,29.76,29.57,5,2,10,0.00
2013-3-26,48.8,39.5,31.2,26.2,23.0,19.8,74,53,32,29.72,29.56,6,2,14,0.00
2013-3-27,49.4,38.6,30.7,35.6,28.6,22.5,94,69,41,29.85,29.70,6,1,13,0.13
2013-3-28,50.4,40.8,34.8,36.6,32.7,29.6,94,75,47,29.97,29.85,4,1,8,0.01
2013-3-29,56.4,45.8,38.3,35.2,30.6,26.7,74,57,36,30.00,29.93,5,1,11,0.00
2013-3-30,55.9,42.7,28.5,32.3,23.1,13.1,89,51,20,30.08,29.97,4,1,9,0.00
2013-3-31,50.7,38.8,22.7,39.0,26.8,17.3,87,65,28,30.10,29.83,4,1,10,0.00
2013-4-1,56.2,43.0,33.4,42.8,38.4,15.0,96,85,45,29.83,29.46,5,2,10,0.58
2013-4-2,38.7,31.7,24.3,17.9,11.9,6.6,69,45,27,29.82,29.68,6,2,14,0.00
2013-4-3,44.8,35.0,26.9,19.6,12.2,6.0,72,41,22,30.05,29.80,6,3,16,0.00
2013-4-4,53.7,38.3,26.4,27.6,15.7,5.5,83,44,17,30.21,29.95,4,1,14,0.00
2013-4-5,59.9,44.1,34.5,30.4,23.7,16.2,68,47,20,29.95,29.62,5,2,12,0.00
2013-4-6,40.7,32.3,23.8,20.8,8.1,0.5,61,38,19,30.33,29.81,7,3,18,0.00
2013-4-7,47.7,37.1,21.2,37.7,25.6,12.2,83,64,38,30.33,29.94,6,2,14,0.00
2013-4-8,61.6,47.5,34.1,39.3,34.6,28.5,96,65,31,30.12,29.89,6,1,13,0.00
2013-4-9,49.4,42.1,37.2,44.7,39.5,33.1,97,91,79,30.10,29.87,4,1,7,0.40
2013-4-10,55.1,45.0,39.2,47.0,42.9,38.2,98,93,70,29.99,29.87,3,0,6,0.37
2013-4-11,53.7,45.2,39.3,43.6,28.7,13.9,98,59,24,30.17,29.85,6,2,13,0.02
2013-4-12,39.2,34.2,31.9,31.9,23.4,13.7,97,68,39,30.25,29.88,5,2,15,0.12
2013-4-13,46.9,37.9,31.9,38.3,34.5,31.0,97,88,68,29.91,29.78,4,1,8,0.34
2013-4-14,52.9,42.4,34.8,38.8,34.7,29.3,98,76,49,30.18,29.88,4,1,11,0.00
2013-4-15,53.7,42.0,28.2,39.2,34.2,26.2,95,75,47,30.41,30.18,4,1,11,0.00
2013-4-16,55.1,44.8,32.1,50.0,39.2,31.3,98,82,63,30.41,29.94,6,2,11,0.00
2013-4-17,61.4,53.6,43.6,51.7,32.6,22.9,85,48,26,30.33,29.94,5,2,14,0.00
2013-4-18,47.7,41.8,29.0,40.0,30.5,22.5,86,65,40,30.47,30.16,3,1,9,0.00
2013-4-19,70.4,55.7,45.6,58.4,50.9,39.7,96,84,64,30.16,29.60,5,2,11,0.00
2013-4-20,58.7,52.1,40.7,57.5,39.6,22.5,98,67,35,30.14,29.55,6,2,14,0.22
2013-4-21,51.6,41.4,32.9,23.3,19.3,12.9,64,42,22,30.69,30.14,5,2,11,0.00
2013-4-22,48.7,38.7,28.8,34.5,22.9,12.9,94,56,27,30.80,30.64,4,1,14,0.00
2013-4-23,42.7,36.4,28.5,39.5,33.5,26.5,95,89,79,30.65,30.19,3,2,8,0.00
2013-4-24,68.5,48.7,40.8,52.4,44.5,39.5,97,87,56,30.19,29.76,7,3,15,0.06
2013-4-25,64.8,52.9,41.9,49.9,36.9,25.9,98,60,28,30.27,29.75,4,1,10,0.03
2013-4-26,56.4,45.3,31.8,35.3,30.5,25.1,94,58,38,30.43,30.27,4,1,12,0.00
2013-4-27,60.8,44.6,29.3,42.8,36.5,28.6,98,76,36,30.41,30.30,4,1,9,0.00
2013-4-28,63.4,48.0,31.0,42.1,35.2,30.2,98,66,34,30.33,30.25,4,1,12,0.00
2013-4-29,62.8,47.4,34.3,47.3,40.1,33.1,96,78,51,30.27,30.20,4,1,11,0.00
2013-4-30,65.6,49.5,33.7,45.6,37.0,28.9,98,69,26,30.38,30.24,4,1,10,0.00
2013-5-1,67.8,50.7,30.5,41.3,33.0,28.1,93,57,24,30.46,30.36,3,1,8,0.00
2013-5-2,68.7,47.6,35.5,48.7,37.4,31.3,96,70,36,30.53,30.39,5,1,11,0.00
2013-5-3,62.9,47.1,32.3,44.1,38.9,31.0,97,75,49,30.55,30.37,5,1,9,0.00
2013-5-4,58.7,45.2,32.9,43.4,38.0,31.6,97,78,55,30.40,30.32,4,1,14,0.00
2013-5-5,60.6,45.4,28.7,42.6,36.3,27.9,98,74,44,30.34,30.25,3,1,10,0.00
2013-5-6,60.2,45.9,30.2,48.3,40.9,29.5,98,84,56,30.27,30.17,4,1,11,0.00
2013-5-7,70.8,54.8,44.2,56.3,48.9,43.5,98,83,51,30.18,30.08,4,1,9,0.00
2013-5-8,70.1,57.6,42.6,61.1,53.2,42.1,98,86,67,30.23,30.11,4,1,11,0.01
2013-5-9,61.6,54.4,50.9,59.2,53.4,50.3,98,97,91,30.11,29.88,3,0,6,0.76
2013-5-10,69.8,56.6,50.0,61.9,54.3,49.6,99,92,72,29.96,29.89,3,0,8,0.05
2013-5-11,66.7,56.8,50.6,62.4,55.5,50.1,99,96,84,29.92,29.67,1,0,10,0.26
2013-5-12,70.9,59.3,44.3,60.5,52.1,37.1,99,80,41,29.73,29.51,4,1,14,0.04
2013-5-13,58.0,48.7,36.5,39.3,31.0,27.1,84,53,33,30.00,29.73,5,2,18,0.00
2013-5-14,59.9,48.4,35.9,37.1,30.8,25.1,91,54,29,30.02,29.93,5,2,16,0.00
2013-5-15,62.2,50.4,37.4,48.8,35.9,23.8,96,62,24,30.01,29.65,4,1,19,0.13
2013-5-16,79.0,61.1,43.2,55.7,43.5,35.4,99,61,22,29.78,29.55,6,2,17,0.00
2013-5-17,66.3,55.6,42.6,43.3,39.9,33.9,90,58,32,30.20,29.78,5,2,14,0.00
2013-5-18,61.4,49.5,36.9,45.6,42.0,35.8,97,77,51,30.33,30.20,4,1,10,0.00
2013-5-19,61.5,50.7,43.8,50.9,47.1,42.7,97,88,66,30.36,30.22,3,1,9,0.09
2013-5-20,75.0,57.9,49.1,62.7,55.0,48.3,99,91,59,30.22,29.91,2,0,7,0.44
2013-5-21,55.0,51.0,48.0,54.3,49.8,46.9,98,96,92,30.12,29.96,3,1,9,0.25
2013-5-22,55.9,50.3,48.0,53.4,49.4,47.4,99,97,90,30.00,29.90,3,0,5,0.39
2013-5-23,62.6,54.9,48.0,61.4,53.8,47.5,99,96,86,29.95,29.79,1,0,5,0.11
2013-5-24,66.7,58.6,48.3,65.8,58.0,47.5,99,98,92,29.83,29.63,7,2,15,1.32
2013-5-25,50.7,47.2,44.7,49.9,46.4,44.2,98,97,91,29.82,29.64,8,5,20,0.60
2013-5-26,55.7,48.2,42.9,45.5,42.7,38.0,99,82,57,29.98,29.59,5,3,17,0.04
2013-5-27,69.1,53.6,37.6,41.7,36.7,29.9,94,59,25,30.16,29.98,6,2,20,0.00
2013-5-28,72.5,55.5,35.9,49.2,39.5,34.9,98,62,26,30.23,30.15,3,1,9,0.00
2013-5-29,56.1,51.8,44.4,55.3,51.1,42.8,99,97,92,30.19,29.98,2,0,9,0.26
2013-5-30,87.2,70.1,53.5,67.1,60.8,53.2,100,77,38,30.02,29.94,4,1,9,0.01
2013-5-31,94.7,76.6,57.0,69.4,63.8,56.4,99,70,37,30.04,29.87,3,1,9,0.00
2013-6-1,95.8,79.8,65.0,70.4,65.2,59.1,90,64,31,29.90,29.78,3,0,7,0.00
2013-6-2,84.8,74.7,66.1,71.7,66.9,62.8,97,78,55,29.80,29.64,4,1,10,0.22
2013-6-3,80.3,67.7,56.7,67.7,64.0,54.3,99,89,62,29.80,29.68,3,0,7,0.02
2013-6-4,66.7,58.9,47.7,54.2,45.5,40.8,97,63,40,30.05,29.76,5,1,12,0.00
2013-6-5,72.6,59.3,45.9,48.8,43.7,33.5,93,60,25,30.16,30.05,4,1,11,0.00
2013-6-6,69.5,58.4,49.8,54.3,48.1,39.8,94,72,36,30.20,30.13,3,1,9,0.00
2013-6-7,59.6,54.0,50.1,53.3,50.8,44.8,98,90,61,30.14,29.92,3,1,7,0.57
2013-6-8,73.4,59.3,52.1,61.6,56.0,51.6,98,90,63,29.96,29.63,6,2,14,0.82
2013-6-9,76.3,64.2,55.6,63.2,58.8,54.1,98,84,52,30.14,29.96,3,1,8,0.00
2013-6-10,68.5,60.5,51.3,57.8,54.7,49.8,97,82,62,30.21,30.04,3,0,9,0.00
2013-6-11,56.2,54.8,53.5,55.3,54.0,52.8,98,97,95,30.04,29.54,4,1,8,1.03
2013-6-12,61.1,57.6,54.0,57.8,55.2,52.8,98,92,84,29.76,29.51,6,2,15,0.14
2013-6-13,70.5,60.0,47.4,57.8,53.3,46.6,98,80,52,29.78,29.72,3,0,6,0.00
2013-6-14,77.1,61.6,53.2,57.8,54.4,48.9,98,80,40,29.74,29.63,4,1,10,0.01
2013-6-15,78.8,64.6,50.6,52.7,45.9,39.5,98,56,27,29.89,29.72,4,1,10,0.00
2013-6-16,76.7,63.3,49.8,59.7,53.2,46.1,94,72,44,29.89,29.69,2,0,6,0.00
2013-6-17,84.1,68.1,57.1,61.7,58.6,54.0,96,75,38,29.85,29.71,4,1,11,0.00
2013-6-18,67.2,60.0,54.7,59.0,56.4,53.2,98,89,63,29.98,29.83,3,0,6,0.16
2013-6-19,76.0,62.7,49.8,55.1,49.0,42.0,99,66,31,30.13,29.91,4,1,11,0.00
2013-6-20,76.4,62.5,45.0,55.7,49.2,42.1,98,67,30,30.24,30.13,3,1,10,0.00
2013-6-21,84.6,65.9,49.9,60.5,54.6,47.2,98,72,31,30.22,30.16,2,0,5,0.00
2013-6-22,83.0,67.3,56.4,69.0,62.6,55.6,98,86,51,30.19,30.08,3,0,7,0.04
2013-6-23,81.5,69.6,63.7,71.5,66.6,63.1,99,91,67,30.12,29.95,3,0,9,1.29
2013-6-24,92.5,77.4,65.3,74.3,68.7,64.8,99,77,46,29.95,29.80,3,1,9,0.00
2013-6-25,89.0,77.5,66.6,74.9,68.6,63.8,95,75,55,29.86,29.68,5,1,11,0.00
2013-6-26,78.3,68.1,58.3,71.0,65.1,57.5,97,90,76,29.88,29.67,3,0,8,0.05
2013-6-27,65.4,59.1,55.2,61.1,57.4,54.1,98,94,84,29.88,29.81,2,0,6,0.75
2013-6-28,65.3,60.1,56.2,65.0,59.8,55.6,99,99,98,29.82,29.52,3,1,9,1.20
2013-6-29,78.0,68.0,62.0,71.3,65.8,61.6,100,93,76,29.67,29.52,3,1,9,0.01
2013-6-30,86.5,72.3,62.2,72.9,67.4,61.4,99,86,52,29.91,29.67,3,0,7,0.00
2013-7-1,78.0,69.6,63.8,72.0,67.8,63.2,99,94,81,30.08,29.91,1,0,7,0.24
2013-7-2,66.2,61.7,58.3,65.9,61.2,57.7,99,98,97,30.21,30.06,5,1,11,0.19
2013-7-3,76.9,64.2,58.4,69.5,62.3,58.1,99,94,76,30.19,30.08,3,0,8,0.07
2013-7-4,89.3,75.4,61.0,76.9,70.4,60.7,99,86,61,30.15,30.02,4,0,9,0.00
2013-7-5,94.4,81.5,69.5,77.9,72.1,68.5,98,76,47,30.10,29.96,4,1,8,0.00
2013-7-6,90.3,80.6,69.4,74.7,70.7,64.0,96,73,50,30.00,29.90,3,1,10,0.00
2013-7-7,88.3,77.0,66.8,72.6,67.7,62.0,95,74,53,29.96,29.88,2,0,7,0.00
2013-7-8,75.1,69.8,64.0,71.2,66.6,61.3,98,90,69,30.07,29.88,4,0,8,0.37
2013-7-9,73.0,65.8,62.5,67.8,63.4,61.6,98,92,81,30.11,30.06,2,0,7,0.04
2013-7-10,66.4,63.3,59.9,66.1,62.4,59.1,99,97,92,30.08,29.76,2,0,7,0.16
2013-7-11,81.8,72.0,66.3,73.7,69.5,64.0,100,92,67,29.95,29.73,2,0,5,0.01
2013-7-12,80.8,68.8,58.5,64.6,60.1,57.1,97,75,50,30.20,29.94,4,1,9,0.00
2013-7-13,81.6,68.3,55.5,65.7,60.4,54.9,99,78,48,30.31,30.20,2,0,7,0.00
2013-7-14,89.9,75.8,60.9,73.6,67.9,60.1,99,79,55,30.27,30.16,3,0,7,0.00
2013-7-15,93.5,80.6,65.5,73.3,68.4,63.8,99,70,43,30.17,30.04,3,1,7,0.00
2013-7-16,90.9,79.6,69.4,76.9,69.6,65.7,93,73,50,30.14,30.07,3,0,7,0.00
2013-7-17,87.8,77.1,65.0,75.9,70.6,64.4,99,82,63,30.16,29.91,3,0,8,0.21
2013-7-18,86.7,74.6,68.4,74.0,70.1,64.7,99,87,59,29.99,29.90,4,1,10,0.32
2013-7-19,95.8,81.3,67.9,78.4,72.7,67.3,99,78,51,29.93,29.62,4,1,11,0.00
2013-7-20,90.3,80.1,69.4,73.5,69.0,62.4,94,70,47,29.76,29.58,4,1,9,0.00
2013-7-21,76.8,68.7,58.7,64.0,59.9,53.1,97,75,49,30.01,29.76,3,1,11,0.00
2013-7-22,74.1,65.9,59.8,65.7,62.3,58.9,98,89,69,30.04,29.91,3,0,6,0.00
2013-7-23,68.6,64.2,60.5,67.1,63.2,59.8,99,97,93,29.91,29.53,2,0,5,1.00
2013-7-24,84.6,69.2,56.8,74.0,63.4,50.4,99,83,61,29.97,29.56,4,1,9,0.02
2013-7-25,72.3,61.9,53.0,60.8,54.4,48.7,96,78,57,30.11,29.96,4,1,9,0.02
2013-7-26,70.1,65.1,60.9,65.9,62.3,59.6,97,91,83,30.08,29.89,6,2,14,0.20
2013-7-27,84.5,72.0,60.9,68.9,63.9,59.8,98,78,49,30.01,29.91,3,0,8,0.00
2013-7-28,71.0,64.4,57.5,67.5,63.1,56.8,99,96,87,30.03,29.99,2,0,6,0.11
2013-7-29,74.6,65.4,60.2,69.0,64.0,59.9,99,95,81,30.05,29.98,3,0,8,0.61
2013-7-30,81.8,68.4,56.2,65.5,59.3,53.0,100,76,38,30.06,29.99,4,1,12,0.00
2013-7-31,82.4,67.9,54.3,62.9,58.5,51.9,99,75,36,30.11,30.02,2,0,8,0.00
2013-8-1,77.0,66.3,54.1,68.1,62.2,53.4,99,87,67,30.04,29.86,3,1,12,0.00
2013-8-2,77.0,67.0,59.9,69.4,64.3,59.3,98,92,74,29.86,29.73,3,0,10,0.56
2013-8-3,81.6,65.7,55.7,64.7,59.5,55.2,99,83,46,29.82,29.71,3,0,10,0.04
2013-8-4,80.4,65.0,53.7,62.7,56.7,52.3,99,77,44,29.83,29.72,4,0,8,0.07
2013-8-5,74.7,63.2,51.3,54.3,49.6,40.1,96,64,41,30.02,29.82,5,1,12,0.00
2013-8-6,78.0,63.2,46.4,58.8,52.0,45.2,98,70,41,30.14,30.01,2,0,6,0.00
2013-8-7,75.2,62.3,47.4,63.4,56.6,46.7,99,83,51,30.18,30.10,3,1,9,0.00
2013-8-8,76.8,66.1,59.0,70.8,63.9,56.4,98,93,79,30.11,29.98,3,0,5,0.14
2013-8-9,71.9,67.7,64.8,71.1,67.2,64.2,99,98,96,30.00,29.72,3,0,6,1.09
2013-8-10,81.6,70.8,57.0,68.1,57.8,44.8,100,69,28,29.98,29.73,4,1,10,0.00
2013-8-11,80.0,64.3,50.6,58.0,53.2,49.4,97,71,40,30.04,29.96,3,0,8,0.00
2013-8-12,81.3,66.7,52.5,63.6,57.9,51.8,98,77,41,29.99,29.88,3,0,7,0.00
2013-8-13,73.0,65.0,55.3,66.8,61.6,54.7,99,89,70,29.89,29.68,2,0,5,0.00
2013-8-14,77.3,67.7,58.5,65.6,58.6,47.3,99,75,43,29.88,29.60,4,1,11,0.00
2013-8-15,77.7,63.4,50.4,57.5,52.1,48.6,94,70,41,30.06,29.88,3,1,7,0.00
2013-8-16,77.7,62.8,49.6,59.3,54.3,48.8,98,77,44,30.16,30.05,3,0,8,0.00
2013-8-17,80.0,64.4,52.0,61.0,55.3,51.3,98,76,43,30.26,30.16,3,0,9,0.00
2013-8-18,76.8,63.5,50.3,66.1,58.1,49.5,99,84,55,30.26,30.03,2,0,4,0.00
2013-8-19,85.3,70.3,55.1,66.7,61.0,54.5,98,76,44,30.03,29.88,2,0,6,0.00
2013-8-20,86.1,72.1,60.7,66.3,62.7,59.3,97,75,48,30.06,29.93,2,0,6,0.00
2013-8-21,77.7,62.3,58.4,70.5,60.8,57.8,98,95,74,30.11,30.05,0,0,1,0.00
2013-8-22,74.7,65.9,69.7,68.4,51.7,-99.9,91,76,78,29.76,-32.77,2,-95,6,0.00
2013-8-23,79.0,70.8,58.1,67.4,55.1,47.4,81,60,35,30.13,29.75,5,2,15,0.00
2013-8-24,79.9,63.7,49.5,54.6,49.7,44.1,94,64,31,30.29,30.13,3,1,9,0.00
2013-8-25,79.3,62.8,47.3,58.2,52.8,46.5,98,74,40,30.34,30.13,2,0,8,0.00
2013-8-26,80.6,68.0,56.2,68.9,63.2,54.0,97,85,62,30.13,29.85,3,0,9,0.23
2013-8-27,85.4,70.0,61.3,69.6,64.7,60.6,99,85,57,29.88,29.82,3,0,8,0.00
2013-8-28,78.8,67.0,60.6,69.3,63.9,60.0,99,90,66,29.99,29.86,4,0,9,0.08
2013-8-29,67.6,64.2,57.6,64.7,61.7,56.3,98,92,83,30.09,29.96,3,1,9,0.00
2013-8-30,80.8,67.4,56.8,69.4,62.5,55.7,98,86,60,30.01,29.75,3,0,8,0.00
2013-8-31,83.3,71.6,64.8,72.0,67.9,63.9,98,89,67,29.80,29.74,3,0,9,0.00
2013-9-1,82.3,72.6,66.8,72.6,68.9,66.2,99,89,69,29.89,29.73,2,0,8,0.00
2013-9-2,68.8,66.2,62.7,67.9,65.8,62.4,99,99,96,29.88,29.72,4,1,14,3.94
2013-9-3,75.1,69.0,63.0,71.2,67.6,62.1,100,95,83,29.75,29.68,2,0,10,0.01
2013-9-4,82.5,67.9,56.5,63.0,58.7,53.4,99,76,39,29.87,29.73,3,1,10,0.01
2013-9-5,65.7,58.9,48.0,59.9,53.3,43.0,97,83,50,30.13,29.84,2,0,8,0.26
2013-9-6,70.0,54.6,40.0,53.2,44.0,37.2,98,73,33,30.22,30.02,3,0,9,0.00
2013-9-7,78.0,60.8,44.5,57.9,51.2,43.7,99,74,41,30.03,29.77,4,0,10,0.00
2013-9-8,67.0,58.8,43.6,59.7,49.1,38.6,96,72,43,30.06,29.69,6,1,19,0.07
2013-9-9,72.3,53.6,38.6,53.7,45.0,37.6,98,76,35,30.20,30.05,2,0,7,0.00
2013-9-10,67.7,59.4,49.8,64.0,57.2,48.4,98,93,80,30.11,30.01,1,0,5,0.04
2013-9-11,93.1,75.5,60.9,77.8,69.2,60.3,99,84,50,30.03,29.87,6,1,22,1.13
2013-9-12,81.8,69.4,64.6,73.6,68.2,64.2,99,96,75,29.96,29.64,2,0,22,1.40
2013-9-13,66.7,63.1,56.9,66.4,62.5,55.4,99,98,95,29.71,29.57,5,1,12,1.19
2013-9-14,68.8,59.7,50.0,58.4,54.6,48.8,99,84,62,30.01,29.70,3,1,8,0.00
2013-9-15,68.0,55.6,42.4,57.3,50.9,42.1,99,86,55,30.11,29.99,3,0,8,0.00
2013-9-16,66.0,55.5,43.8,57.6,49.5,35.1,97,81,60,30.25,29.95,6,1,11,0.02
2013-9-17,65.6,50.0,35.5,49.3,40.7,34.1,97,73,43,30.40,30.25,4,1,9,0.00
2013-9-18,74.1,53.2,38.0,53.1,45.1,37.5,99,79,38,30.29,30.09,2,0,7,0.00
2013-9-19,76.2,56.0,41.7,55.9,48.8,41.2,99,81,44,30.11,30.01,2,0,5,0.00
2013-9-20,75.5,56.8,43.6,58.4,50.4,43.3,99,82,44,30.10,30.01,3,0,7,0.00
2013-9-21,66.8,60.1,54.6,62.5,58.1,54.0,99,93,77,30.02,29.74,3,0,6,0.01
2013-9-22,73.0,63.6,51.6,64.0,57.7,44.1,98,82,51,29.75,29.57,4,1,9,0.27
2013-9-23,57.4,50.7,42.4,44.3,40.8,37.6,91,69,54,29.94,29.75,7,2,17,0.00
2013-9-24,58.6,48.9,41.0,45.6,41.8,38.8,95,78,53,29.93,29.82,5,1,11,0.00
2013-9-25,61.4,53.4,42.6,49.6,45.9,41.0,96,76,59,29.98,29.85,6,1,13,0.00
2013-9-26,65.8,54.9,44.1,52.0,48.1,42.5,95,79,60,30.13,29.98,5,1,9,0.00
2013-9-27,70.8,58.5,47.6,56.5,51.8,46.8,98,79,56,30.24,30.12,3,1,10,0.00
2013-9-28,71.7,56.4,45.1,56.8,50.4,44.6,99,83,43,30.33,30.24,3,1,8,0.00
2013-9-29,70.9,51.5,41.3,56.8,48.3,40.8,99,90,55,30.26,30.13,3,0,9,0.07
2013-9-30,64.5,48.3,37.5,53.0,45.1,37.1,99,90,63,30.15,29.98,3,1,8,0.00
2013-10-1,79.0,56.9,41.1,57.8,49.6,40.8,99,81,40,29.98,29.82,5,1,11,0.01
2013-10-2,79.7,62.3,48.6,62.0,55.0,48.1,99,80,47,29.90,29.76,4,1,8,0.00
2013-10-3,77.5,59.5,45.6,57.9,50.7,45.1,99,77,36,30.06,29.90,5,1,8,0.01
2013-10-4,72.6,57.0,43.0,56.9,50.1,42.5,99,81,46,30.09,30.02,3,0,7,0.00
2013-10-5,62.7,55.8,46.3,52.9,46.9,42.1,97,73,49,30.15,30.08,3,1,6,0.00
2013-10-6,53.5,50.0,45.9,49.7,44.5,38.6,98,82,63,30.29,30.14,4,2,9,0.07
2013-10-7,67.3,59.0,50.5,66.0,58.4,49.7,99,98,94,30.21,29.80,9,3,17,0.63
2013-10-8,62.6,53.3,37.0,58.4,44.7,36.2,97,75,45,30.39,29.83,4,1,16,0.00
2013-10-9,60.9,45.2,33.1,45.0,38.5,32.6,99,81,46,30.49,30.37,3,1,7,0.00
2013-10-10,64.6,47.2,33.2,51.4,43.1,32.7,99,88,51,30.37,30.19,3,0,7,0.00
2013-10-11,68.1,53.4,42.7,56.1,48.3,42.4,99,85,52,30.19,30.13,4,1,7,0.01
2013-10-12,58.3,52.8,48.6,52.4,49.6,47.5,98,89,78,30.43,30.17,5,1,11,0.00
2013-10-13,58.2,50.4,40.3,49.3,46.5,39.8,98,87,58,30.48,30.40,3,0,6,0.00
2013-10-14,63.1,49.4,36.5,50.6,44.7,36.2,99,86,56,30.40,30.24,4,1,8,0.01
2013-10-15,65.9,55.6,49.4,54.3,51.5,48.6,98,87,64,30.29,30.20,4,1,9,0.00
2013-10-16,60.1,54.9,49.9,54.7,52.6,49.1,98,92,75,30.21,29.90,4,1,8,0.00
2013-10-17,73.5,58.7,48.6,56.9,52.1,47.5,98,82,41,29.90,29.70,5,1,11,0.00
2013-10-18,67.7,57.3,48.8,57.0,50.6,42.9,99,81,49,29.83,29.57,6,1,14,0.40
2013-10-19,65.5,52.2,41.8,50.4,43.8,38.0,92,75,41,29.93,29.75,4,1,7,0.00
2013-10-20,61.3,52.7,41.8,50.6,41.5,31.5,98,69,36,29.96,29.66,5,1,14,0.01
2013-10-21,64.2,49.1,37.3,48.3,40.1,34.3,97,74,42,30.08,29.96,4,1,8,0.00
2013-10-22,60.4,50.4,39.6,55.2,47.6,38.8,98,91,73,29.97,29.70,5,1,12,0.06
2013-10-23,52.8,43.1,32.3,42.9,38.2,31.8,99,84,57,29.77,29.58,4,1,9,0.01
2013-10-24,51.2,43.1,32.6,35.9,31.6,26.0,93,66,41,29.83,29.60,7,2,19,0.00
2013-10-25,47.7,39.0,28.1,35.4,30.2,25.4,94,73,47,30.10,29.83,4,1,10,0.00
2013-10-26,51.1,40.0,25.6,35.9,30.0,23.8,97,70,45,30.11,29.86,5,1,16,0.00
2013-10-27,54.9,45.2,31.9,40.5,35.1,27.5,95,69,48,30.02,29.78,5,1,14,0.02
2013-10-28,55.8,40.9,30.2,36.3,29.8,23.0,88,66,45,30.35,30.01,9,2,18,0.00
2013-10-29,47.5,33.9,22.3,28.3,22.9,17.6,94,68,32,30.46,30.35,4,1,9,0.00
2013-10-30,49.3,34.2,24.9,31.9,26.9,22.8,95,78,42,30.35,30.17,4,1,8,0.00
2013-10-31,56.9,39.4,25.2,56.3,37.8,24.2,99,94,83,30.25,29.77,4,1,11,0.25
2013-11-1,68.2,60.5,55.8,61.6,56.1,43.9,99,86,59,29.77,29.35,8,4,18,0.21
2013-11-2,64.5,53.2,39.7,47.6,43.8,38.4,97,72,44,29.75,29.57,7,1,12,0.07
2013-11-3,46.3,38.1,30.7,44.0,26.4,17.3,93,64,41,30.42,29.74,8,4,15,0.00
2013-11-4,41.2,30.5,20.6,21.1,17.9,15.2,91,62,36,30.72,30.42,8,2,15,0.00
2013-11-5,47.6,32.5,19.8,32.7,26.1,17.6,97,79,52,30.73,30.50,5,1,11,0.00
2013-11-6,55.3,43.1,29.7,46.6,39.2,28.7,97,87,66,30.51,29.97,6,2,11,0.00
2013-11-7,59.1,50.8,40.3,56.4,45.8,29.3,94,83,63,29.98,29.63,8,2,14,0.03
2013-11-8,46.4,38.5,27.0,29.6,25.0,22.4,87,59,41,30.00,29.76,8,2,12,0.00
2013-11-9,43.4,36.8,29.2,28.7,23.1,19.6,79,59,40,30.13,30.00,6,2,11,0.00
2013-11-10,42.8,37.7,32.3,40.0,34.8,27.8,97,90,75,30.06,29.71,3,1,8,0.04
2013-11-11,46.6,39.4,32.3,36.2,30.3,26.9,86,71,47,30.03,29.74,6,2,9,0.00
2013-11-12,41.9,32.5,24.7,31.4,20.5,14.1,79,61,47,30.12,29.82,7,3,18,0.00
2013-11-13,34.3,26.7,20.9,15.1,12.9,10.2,70,56,38,30.24,30.08,5,2,11,0.00
2013-11-14,49.9,34.7,25.1,28.9,22.8,13.5,92,63,43,30.09,29.98,4,1,11,0.00
2013-11-15,53.9,35.6,24.2,29.1,24.8,20.9,96,70,30,30.18,30.07,5,1,9,0.00
2013-11-16,56.5,39.1,29.8,38.8,30.5,26.1,97,74,36,30.34,30.17,3,0,6,0.00
2013-11-17,52.0,45.3,40.0,51.7,43.8,38.8,99,94,86,30.35,29.90,6,1,14,0.25
2013-11-18,62.1,53.7,45.2,57.6,47.5,35.4,99,82,47,29.90,29.46,8,3,20,0.42
2013-11-19,45.3,36.7,30.5,35.6,21.1,15.4,74,53,42,30.23,29.57,9,5,17,0.00
2013-11-20,39.4,30.6,22.8,16.3,13.5,9.4,74,50,29,30.63,30.22,8,3,12,0.00
2013-11-21,48.2,30.3,17.7,21.9,16.3,10.6,88,60,23,30.64,30.34,3,0,5,0.00
2013-11-22,37.3,34.0,27.4,35.7,29.9,17.6,97,86,61,30.34,29.77,3,0,4,0.04
2013-11-23,39.4,34.5,25.2,36.6,23.7,12.9,98,67,34,29.83,29.68,9,4,19,0.00
2013-11-24,27.4,21.8,18.1,22.2,5.7,1.1,81,50,40,30.03,29.68,12,7,30,0.00
2013-11-25,28.2,22.0,16.7,11.5,3.5,-1.5,58,45,30,30.32,30.03,7,3,14,0.00
2013-11-26,33.7,29.7,25.3,30.3,23.7,11.4,97,80,49,30.32,30.14,4,1,8,0.01
2013-11-27,58.1,46.3,31.2,57.8,45.6,30.3,99,97,88,30.15,29.15,11,4,27,2.61
2013-11-28,37.3,28.9,16.2,34.2,15.7,3.3,92,59,34,30.39,29.29,10,4,22,0.00
2013-11-29,26.5,18.7,10.7,13.7,8.4,3.1,94,66,38,30.75,30.39,7,1,13,0.00
2013-11-30,29.1,20.9,10.5,20.7,12.0,6.1,86,69,40,30.82,30.43,4,1,9,0.00
2013-12-1,32.9,31.0,27.9,32.4,28.2,20.7,98,90,71,30.43,30.05,6,1,11,0.38
2013-12-2,34.4,33.1,31.7,33.9,32.5,30.9,99,98,97,30.05,29.92,6,3,13,0.04
2013-12-3,44.1,36.6,31.1,38.7,34.3,27.8,99,91,78,29.93,29.85,6,2,10,0.00
2013-12-4,39.6,31.8,24.8,28.6,25.8,23.3,96,80,59,30.21,29.89,6,1,11,0.00
2013-12-5,35.1,31.3,24.5,34.6,29.8,23.5,98,94,89,30.25,29.90,3,0,6,0.01
2013-12-6,44.9,39.3,33.1,43.5,36.7,27.6,99,91,67,30.12,29.84,3,0,7,0.11
2013-12-7,37.3,30.8,19.3,31.2,21.9,9.7,96,72,44,30.42,30.06,6,1,14,0.03
2013-12-8,28.7,21.8,12.8,16.5,12.3,7.6,93,68,42,30.59,30.41,4,1,10,0.00
2013-12-9,26.0,23.8,22.4,24.5,18.7,11.3,95,82,60,30.54,29.84,7,3,11,0.00
2013-12-10,32.8,26.4,20.6,31.0,25.0,17.0,97,94,82,29.91,29.73,2,0,5,0.00
2013-12-11,29.0,19.1,10.0,20.2,14.5,8.1,95,83,58,30.14,29.91,5,1,12,0.00
2013-12-12,18.7,11.9,4.7,15.9,3.4,-2.1,92,70,41,30.25,30.01,6,1,12,0.00
2013-12-13,24.2,13.0,3.4,11.8,2.8,-6.1,84,64,45,30.40,29.92,7,2,14,0.00
2013-12-14,13.6,6.5,-0.8,6.7,-5.4,-11.0,89,59,37,30.63,30.38,7,2,14,0.00
2013-12-15,18.0,12.3,6.3,14.5,9.5,4.0,91,88,80,30.38,29.42,11,6,23,0.00
2013-12-16,24.5,16.1,4.5,18.5,5.8,-6.6,95,66,39,30.21,29.66,8,2,14,0.00
2013-12-17,12.5,5.1,-9.5,7.2,-3.3,-13.3,90,69,48,30.31,30.04,6,2,13,0.00
2013-12-18,32.6,20.3,9.5,22.0,15.2,6.9,94,82,54,30.04,29.84,7,3,14,0.00
2013-12-19,32.7,24.8,19.1,24.9,20.6,17.4,95,84,71,30.09,29.92,4,1,12,0.00
2013-12-20,39.8,30.6,20.5,33.4,27.8,18.8,96,89,74,30.12,29.91,2,0,3,0.09
2013-12-21,38.7,33.9,31.3,36.6,32.9,30.5,98,96,92,29.95,29.83,3,1,6,0.16
2013-12-22,32.0,28.5,25.4,31.4,27.6,24.4,98,96,95,30.09,29.86,6,3,14,0.35
2013-12-23,32.0,29.1,25.4,31.5,28.4,24.4,98,97,96,30.13,29.97,4,1,7,0.00
2013-12-24,32.3,24.2,12.4,31.8,22.6,9.5,98,93,88,30.19,30.06,2,0,5,0.00
2013-12-25,19.0,10.4,5.5,14.2,6.9,0.9,92,85,79,30.56,30.18,4,2,9,0.00
2013-12-26,22.2,16.5,10.1,20.7,14.8,8.2,96,93,91,30.52,30.08,3,0,5,0.00
2013-12-27,33.4,21.6,9.9,27.5,19.2,8.0,96,91,77,30.21,30.13,4,1,10,0.05
2013-12-28,36.1,26.0,12.9,31.5,23.7,11.4,97,91,81,30.17,29.93,5,1,13,0.03
2013-12-29,34.7,27.1,20.1,32.9,26.1,18.9,98,96,92,30.02,29.52,5,1,8,0.33
2013-12-30,32.2,20.7,1.6,29.9,17.7,-0.9,98,88,65,30.18,29.51,6,2,11,0.00
2013-12-31,11.1,2.1,-4.2,5.3,-1.6,-7.2,90,84,71,30.18,30.04,3,0,6,0.00
2014-1-1,21.7,8.8,-4.3,11.0,3.9,-7.1,94,81,56,30.41,30.13,7,1,17,0.00
2014-1-2,7.0,-2.3,-7.5,1.9,-6.6,-11.3,85,81,71,30.44,30.00,11,6,18,0.00